This demonstration page uses our WeatherBlox Daily Observations layout. Learn more.

Left ArrowRight Arrow

34.74481, -87.66753

Hourly Observations for August 18, 2022

Temp ( °F °C ) Dew Point ( °F °C ) Humidity (%) Winds ( mph kmh ) Pressure ( in mb ) Visibility ( mi km ) Precip ( " mm )
12:53 am 00:53 Clear 68 20 65 18.3 90 90 Calm 29.96 1015 9 14 0.00 0.00
1:53 am 01:53 Clear 67 19.4 65 18.3 93 93 Calm 29.96 1015 7 11 0.00 0.00
2:53 am 02:53 Clear 67 19.4 65 18.3 93 93 Calm 29.96 1015 8 13 0.00 0.00
3:53 am 03:53 Clear with Mist and Fog 66 18.9 64 17.8 93 93 Calm 29.96 1015 6 10 0.00 0.00
4:11 am 04:11 Clear with Mist and Fog 65 18.3 64 17.8 97 97 Calm 29.96 1015 1 2 0.00 0.00
4:17 am 04:17 Clear with Mist and Fog 65 18.3 64 17.8 97 97 Calm 29.97 1015 3 5 0.00 0.00
4:45 am 04:45 Clear with Mist and Fog 65 18.3 64 17.8 97 97 Calm 29.96 1015 2 2 0.00 0.00
4:53 am 04:53 Clear with Fog 65 18.3 63 17.2 93 93 Calm 29.96 1014 1 1 0.00 0.00
5:01 am 05:01 Mostly Clear with Fog 65 18.3 63 17.2 93 93 Calm 29.96 1015 0 0 0.00 0.00
5:25 am 05:25 Mostly Clear with Mist and Fog 64 17.8 63 17.2 96 96 NE 5 7 29.96 1015 1 1 0.00 0.00
5:31 am 05:31 Mostly Clear with Mist and Fog 64 17.8 63 17.2 96 96 Calm 29.96 1015 3 5 0.00 0.00
5:53 am 05:53 Clear 65 18.3 63 17.2 93 93 Calm 29.96 1014 7 11 0.00 0.00
6:53 am 06:53 Sunny with Mist and Fog 66 18.9 64 17.8 93 93 Calm 29.97 1015 4 6 0.00 0.00
7:53 am 07:53 Sunny 71 21.7 66 18.9 84 84 E 3 6 29.97 1015 10 16 0.00 0.00
8:53 am 08:53 Sunny 76 24.4 67 19.4 74 74 Calm 29.98 1015 10 16 0.00 0.00
9:53 am 09:53 Sunny 81 27.2 67 19.4 62 62 ENE 3 6 29.97 1015 10 16 0.00 0.00
10:53 am 10:53 Sunny 85 29.4 62 16.7 46 46 NE 8 13 29.96 1015 10 16 0.00 0.00
11:53 am 11:53 Partly Cloudy 86 30 61 16.1 43 43 E 6 9 29.96 1015 10 16 0.00 0.00
12:53 pm 12:53 Mostly Sunny 85 29.4 61 16.1 45 45 E 5 7 29.96 1015 10 16 0.00 0.00
1:53 pm 13:53 Mostly Sunny 90 32.2 60 15.6 37 37 VRB 6 9 29.95 1014 10 16 0.00 0.00
2:53 pm 14:53 Sunny 88 31.1 58 14.4 36 36 N 3 6 29.92 1013 10 16 0.00 0.00
3:53 pm 15:53 Mostly Sunny 90 32.2 57 13.9 33 33 undefined N/A 29.91 1013 10 16 0.00 0.00
4:53 pm 16:53 Sunny 91 32.8 60 15.6 36 36 VRB 5 7 29.90 1013 10 16 0.00 0.00
5:53 pm 17:53 Sunny 88 31.1 60 15.6 39 39 VRB 5 7 29.89 1012 10 16 0.00 0.00
6:53 pm 18:53 Sunny 86 30 61 16.1 43 43 Calm 29.89 1012 10 16 0.00 0.00
7:53 pm 19:53 Clear 77 25 64 17.8 64 64 Calm 29.91 1013 10 16 0.00 0.00
8:53 pm 20:53 Clear 74 23.3 64 17.8 71 71 Calm 29.92 1013 9 14 0.00 0.00
9:53 pm 21:53 Clear 71 21.7 65 18.3 81 81 Calm 29.92 1013 10 16 0.00 0.00
10:53 pm 22:53 Clear 70 21.1 65 18.3 84 84 Calm 29.92 1013 10 16 0.00 0.00
11:53 pm 23:53 Mostly Cloudy 70 21.1 65 18.3 84 84 Calm 29.93 1014 10 16 0.00 0.00

Powered by AerisWeather